Regional Weather Roundup
Issued by NWS

Home | Current Version | Previous Version | Graphics & Text | Print | Product List | Glossary On
Versions: 1 2 3 4 5 6 7 8 9 10 11 12 13 14 15 16 17 18 19 20 21 22 23 24 25 26 27 28 29 30 31 32 33 34 35 36 37 38 39 40 41 42 43 44 45 46 47 48 49 50
000
ASUS45 KBOU 150007
RWRCO

WEATHER ROUNDUP FOR COLORADO
NATIONAL WEATHER SERVICE DENVER/BOULDER CO
600 PM MDT SUN SEP 14 2014

NOTE: "FAIR" INDICATES FEW OR NO CLOUDS BELOW 12000 FEET WITH NO
SIGNIFICANT WEATHER AND/OR OBSTRUCTIONS TO VISIBILITY.

COZ001>005-013-030-031-150100-
...NORTHWEST COLORADO...

CITY           SKY/WX    TMP DP  RH WIND       PRES   REMARKS
CRAIG          PTSUNNY   77  33  20 W14       30.13R
HAYDEN         PTSUNNY   75  30  19 NW17G24   30.15S
MEEKER         MOSUNNY   77  33  20 W7        30.16S
MOUNT WERNER   NOT AVBL
STEAMBOAT SPGS PTSUNNY   73  33  23 SW6       30.18R
WALDEN         PTSUNNY   63  28  27 W20G25    30.27S
$$

COZ006>008-011-150100-
...WEST CENTRAL VALLEYS...

CITY           SKY/WX    TMP DP  RH WIND       PRES   REMARKS
GRAND JUNCTION SUNNY     84  36  18 W7        30.03F
MONTROSE       MOSUNNY   78  41  26 N6        30.13S
EAGLE          MOSUNNY   79  30  17 W10       30.18S
RIFLE          MOSUNNY   81  34  18 W14       30.08F
DELTA          MOSUNNY   88  32  13 CALM      30.07S
NUCLA          MOSUNNY   77  41  27 NW5       30.16S
$$

COZ017>023-064>068-150100-
...SOUTHWEST COLORADO...

CITY           SKY/WX    TMP DP  RH WIND       PRES   REMARKS
DURANGO        MOSUNNY   80  35  19 SW12G17   30.17S
CORTEZ         SUNNY     82  39  21 SW8       30.13S
PAGOSA SPRINGS NOT AVBL
TELLURIDE      MOSUNNY   68  34  28 W9        30.36S
WOLF CREEK PAS LGT RAIN  46  32  57 S5G16     30.57F
$$

COZ009-010-012-014-032>034-037-058>063-150100-
...CENTRAL COLORADO...

CITY           SKY/WX    TMP DP  RH WIND       PRES   REMARKS
ASPEN          MOSUNNY   69  33  26 W5        30.27S
BUENA VISTA    MOSUNNY   72  27  18 W9        30.26S
COPPER MTN     PTSUNNY   54  28  37 SW14G24   30.58R
BERTHOUD PASS  FAIR      43  43 100 W26G33    30.58F
COTTONWOOD PAS MOSUNNY   66  23  19 CALM      30.41S
GUNNISON       SUNNY     73  34  23 W6        30.27S
KREMMLING      PTSUNNY   70  30  23 W10       30.24F
LEADVILLE      MOSUNNY   59  31  34 NW10G21   30.42R
MONARCH PASS   MOSUNNY   55  28  35 W26G33    30.66S
SALIDA         MOSUNNY   77  24  14 W12G21    30.29S
SUNLIGHT       MOSUNNY   59  36  41 CALM      30.50S
WILKERSON PASS NOT AVBL
$$

COZ069>075-150100-
...SAN LUIS VALLEY/SANGRE DE CRISTO MOUNTAINS...

CITY           SKY/WX    TMP DP  RH WIND       PRES   REMARKS
ALAMOSA        PTSUNNY   72  36  26 N10       30.24R
LA VETA PASS   NOT AVBL
SAGUACHE       NOT AVBL
$$

COZ035-036-038>040-150100-
...NORTHERN COLORADO FRONT RANGE...

CITY           SKY/WX    TMP DP  RH WIND       PRES   REMARKS
DENVER INTL AP PTSUNNY   77  37  23 NW9       30.06R
DMNS CITY PARK   N/A     78  36  22 N10G16    30.05S
AURORA         PTSUNNY   76  38  25 N9        30.09R
FRONT RANGE AP NOT AVBL
ERIE MUNI ARPT PTSUNNY   76  38  25 NW6       30.04S
BOULDER MUN AP PTSUNNY   77  37  24 W14G22    30.04S
CENTENNIAL     PTSUNNY   79  34  19 N13       30.09R
BROOMFIELD     PTSUNNY   79  39  24 N8        30.08R
FORT COLLINS   PTSUNNY   81  41  24 SW7       30.02S
LONGMONT       PTSUNNY   78  42  27 NW10G20   30.06R
$$

COZ041-046-047-076>085-087-088-150100-
...PIKES PEAK/PALMER DIVIDE AND SOUTHERN FOOTHILLS...

CITY           SKY/WX    TMP DP  RH WIND       PRES   REMARKS
COLO. SPRINGS  MOSUNNY   80  27  14 S10       30.12S
A. F. ACADEMY  MOSUNNY   76  29  18 S10       30.14S
ELLICOTT       NOT AVBL
FALCON         MOSUNNY   76  28  16 S7        30.18S
FORT CARSON    MOSUNNY   76  37  23 SE6       30.08F
LIMON          SUNNY     82  27  13 SW3       30.06S
MONUMENT HILL  MOSUNNY   72  34  25 S6        30.17S
TRINIDAD       MOSUNNY   83  32  16 S6        30.08F
$$

COZ042>045-048>051-090-091-150100-
...NORTHEAST COLORADO...

CITY           SKY/WX    TMP DP  RH WIND       PRES   REMARKS
GREELEY ARPT   PTSUNNY   77  41  27 W6        30.01R
AKRON          MOSUNNY   74  46  36 N12       30.00R
BURLINGTON     SUNNY     80  52  37 S13G22    29.99F
WRAY           SUNNY     75  56  50 E14       29.94F
STERLING       MOSUNNY   77  54  44 N6        29.94F
HOLYOKE        SUNNY     73  61  64 W6        30.04R
FORT MORGAN    MOSUNNY   77  40  26 W3        29.99F
$$

COZ086-089-092>099-150100-
...SOUTHEAST COLORADO...

CITY           SKY/WX    TMP DP  RH WIND       PRES   REMARKS
PUEBLO         MOSUNNY   87  27  11 SE9       29.99F
LA JUNTA       SUNNY     88  30  12 SE7       29.98F
LAMAR          SUNNY     88  36  15 SE10      29.95F
SPRINGFIELD      N/A     79  54  41 S20G28    30.04F
$$


USA.gov is the U.S. government's official web portal to all federal, state and local government web resources and services.